sat.trackr.live / text

‹ back to catalog

STARLINK-32817

NORAD 63079 · 2025-037C

PAYLOAD ACTIVE UNKNOWN

§ Identity

Operator
Country
US
Launch date
2025-02-23
Launch site
AFWTR
Launch vehicle
Mass (kg)
RCS (m²)

Purposes: comms

External: N2YO · Heavens-Above · Gunter

§ Orbital elements

Epoch: 2026-09-20T14:36:38.887488Z

Period
94.14 min
Inclination
70.0020°
Eccentricity
0.0002053
Mean motion
15.29585541 rev/d
Perigee alt
475.6 km
Apogee alt
478.5 km
Semi-major
6,855.2 km
B*
4.6894e-4
RAAN
220.8141°
Arg perigee
277.0598°
Mean anomaly
83.0344°
Rev number
8,784

§ Raw data

STARLINK-328171 63079U 25037C   26263.60878342  .00013378  00000+0  46894-3 0  99942 63079  70.0020 220.8141 0002053 277.0598  83.0344 15.29585541 87846

JSON: /api/v1/satellites/63079 · /tle

For live sub-satellite position, see the globe view (requires WebGL).

§ Visibility from observer

Set your observer location to see the next 7 days of passes ≥ 10°. The values pass through the URL so the page stays shareable.

No JS? Fill the form by hand. The geolocation button needs JavaScript.